Sioux City, IA

4:51 AM CDT on July 27, 2017 (GMT -0500)
Sioux Gateway

Weather History for KSUX - August, 2014

Change the Weather History Date:

Friday, August 15, 2014

  Actual Average Record
Temperature  
Mean Temperature 72 °F 72 °F  
Max Temperature 78 °F 84 °F 105 °F (1937)
Min Temperature 66 °F 62 °F 45 °F (1992)
Degree Days  
Heating Degree Days 0 0  
Month to date heating degree days 0 0  
Since 1 June heating degree days 26 30  
Since 1 July heating degree days 6 3  
Cooling Degree Days 7 8  
Month to date cooling degree days 101 127  
Year to date cooling degree days 610 672  
Since 1 June cooling degree days 489 608  
Growing Degree Days 22 (Base 50)    
Moisture  
Dew Point 66 °F    
Average Humidity 81    
Maximum Humidity 93    
Minimum Humidity 69    
Precipitation  
Precipitation 0.64 in 0.11 in 1.72 in (1908)
Month to date precipitation 4.23 1.54  
Year to date precipitation 29.74 18.85  
Snow  
Snow 0.00 in 0.00 in 0.00 in ()
Month to date snowfall 0.0 0.0  
Since 1 June snowfall 0.0 0.0  
Since 1 July snowfall 0.0 0.0  
Snow Depth 0.00 in    
Sea Level Pressure  
Sea Level Pressure 29.90 in    
Wind  
Wind Speed 8 mph (SE)    
Max Wind Speed 17 mph    
Max Gust Speed 23 mph    
Visibility 9 miles    
Events Rain , Thunderstorm    
T = Trace of Precipitation, MM = Missing Value Source: NWS Daily Summary

Daily Weather History Graph

Daily Weather History Graph

Search for Another Location

Airport or City:

Trip Planner

Search our weather history database for the weather conditions in past years. The results will help you decide how hot, cold, wet, or windy it might be!

Date:

Astronomy

Aug. 15, 2014 Rise Set
Actual Time 6:32 AM CDT 8:26 PM CDT
Civil Twilight 6:02 AM CDT 8:56 PM CDT
Nautical Twilight 5:25 AM CDT 9:33 PM CDT
Astronomical Twilight 4:45 AM CDT 10:13 PM CDT
Moon 11:21 PM CDT (8/15) 12:24 PM CDT (8/15)
Length of Visible Light 14h 54m
Length of Day
13h 53m
Waning Gibbous, 69% of the Moon is Illuminated
Aug 15
Waning Gibbous
Aug 17
Last Quarter
Aug 25
New
Sep 2
First Quarter
Sep 8
Full

Hourly Weather History & Observations

Time (CDT) Temp. Dew Point Humidity Pressure Visibility Wind Dir Wind Speed Gust Speed Precip Events Conditions
12:52 AM 71.1 °F 64.9 °F 81% 29.93 in 10.0 mi SSE 6.9 mph - 0.00 in   Partly Cloudy
1:04 AM 70.0 °F 64.9 °F 84% 29.95 in 10.0 mi SE 6.9 mph - N/A Thunderstorm Scattered Clouds
1:19 AM 70.0 °F 64.9 °F 84% 29.94 in 10.0 mi ESE 9.2 mph - N/A   Scattered Clouds
1:52 AM 70.0 °F 64.0 °F 81% 29.91 in 10.0 mi SE 8.1 mph - N/A   Scattered Clouds
2:52 AM 69.1 °F 64.0 °F 84% 29.91 in 10.0 mi SSE 4.6 mph - N/A   Partly Cloudy
3:52 AM 69.1 °F 64.0 °F 84% 29.90 in 10.0 mi SSE 8.1 mph - N/A   Scattered Clouds
4:15 AM 68.0 °F 64.9 °F 90% 29.93 in 2.5 mi ESE 8.1 mph - 0.14 in Rain , Thunderstorm Heavy Thunderstorms and Rain
4:25 AM 66.9 °F 64.9 °F 93% 29.94 in 1.8 mi ENE 6.9 mph - 0.44 in Rain , Thunderstorm Heavy Thunderstorms and Rain
4:31 AM 66.9 °F 64.9 °F 93% 29.94 in 3.0 mi East 6.9 mph - 0.53 in Rain , Thunderstorm Heavy Thunderstorms and Rain
4:47 AM 68.0 °F 64.4 °F 88% 29.93 in 7.0 mi ESE 8.1 mph - 0.63 in Rain Light Rain
4:52 AM 68.0 °F 64.9 °F 90% 29.91 in 10.0 mi ESE 9.2 mph - 0.64 in Rain , Thunderstorm Light Rain
5:09 AM 68.0 °F 64.9 °F 90% 29.93 in 10.0 mi ESE 9.2 mph - 0.00 in   Overcast
5:52 AM 68.0 °F 64.0 °F 87% 29.90 in 10.0 mi ESE 8.1 mph - 0.00 in   Scattered Clouds
6:52 AM 66.9 °F 64.0 °F 90% 29.91 in 10.0 mi ESE 8.1 mph - N/A   Mostly Cloudy
7:52 AM 68.0 °F 64.0 °F 87% 29.91 in 10.0 mi ESE 8.1 mph - N/A   Overcast
8:52 AM 69.8 °F 64.4 °F 83% 29.95 in 10.0 mi SE 9.2 mph - N/A   Mostly Cloudy
9:52 AM 70.0 °F 64.9 °F 84% 29.94 in 10.0 mi SE 5.8 mph - 0.00 in   Mostly Cloudy
10:52 AM 72.0 °F 64.9 °F 78% 29.93 in 10.0 mi SE 12.7 mph - N/A   Partly Cloudy
11:52 AM 75.0 °F 66.0 °F 73% 29.91 in 10.0 mi SSE 12.7 mph - N/A   Scattered Clouds
12:52 PM 77.0 °F 66.9 °F 71% 29.89 in 10.0 mi SSE 13.8 mph 21.9 mph N/A   Scattered Clouds
1:52 PM 77.0 °F 66.9 °F 71% 29.86 in 10.0 mi SSE 13.8 mph 20.7 mph N/A   Clear
2:52 PM 75.9 °F 68.0 °F 76% 29.86 in 10.0 mi South 10.4 mph 19.6 mph N/A   Clear
3:52 PM 77.0 °F 68.0 °F 74% 29.87 in 10.0 mi South 11.5 mph - N/A   Scattered Clouds
4:52 PM 75.9 °F 68.0 °F 76% 29.86 in 10.0 mi South 11.5 mph - N/A   Overcast
5:52 PM 75.0 °F 68.0 °F 79% 29.86 in 10.0 mi South 8.1 mph - N/A   Overcast
6:52 PM 73.0 °F 68.0 °F 84% 29.86 in 10.0 mi SSW 8.1 mph - N/A   Overcast
7:52 PM 73.0 °F 68.0 °F 84% 29.85 in 10.0 mi SSE 6.9 mph - N/A   Overcast
8:52 PM 72.0 °F 68.0 °F 87% 29.86 in 10.0 mi ESE 4.6 mph - N/A   Overcast
9:27 PM 72.0 °F 68.0 °F 87% 29.88 in 9.0 mi SE 5.8 mph - N/A   Overcast
9:52 PM 72.0 °F 68.0 °F 87% 29.87 in 10.0 mi SE 5.8 mph - N/A   Overcast
10:52 PM 69.1 °F 66.9 °F 93% 29.86 in 8.0 mi ESE 4.6 mph - N/A   Partly Cloudy